NKS45G KATL-KFLL

Flight info

Callsign NKS45G
Flight time N/A
Altitude 37000
Route SMLTZ3 WALET ZPLEN TEEKY4
Aircraft A320/M-SDE3FGHIRWY/LB1

Departure

Time 2026-05-03 22:11
Airport Hartsfield Jackson Atlanta International Airport (KATL)

Arrival

Time N/A
Airport Fort Lauderdale Hollywood International Airport (KFLL)
Time Latitude Longitude Altitude Speed Heading
2026-05-03 21:47 33.64190 -84.42889 1018 ft 0 kts 269°
2026-05-03 22:03 33.64190 -84.42890 1027 ft 0 kts 269°
2026-05-03 22:03 33.64190 -84.42889 1027 ft 0 kts 269°
2026-05-03 22:03 33.64190 -84.42884 1018 ft 0 kts 268°
2026-05-03 22:03 33.64190 -84.42880 1017 ft 1 kts 268°
2026-05-03 22:04 33.64190 -84.42874 1017 ft 1 kts 269°
2026-05-03 22:04 33.64190 -84.42867 1017 ft 1 kts 264°
2026-05-03 22:04 33.64190 -84.42864 1017 ft 0 kts 262°
2026-05-03 22:04 33.64185 -84.42866 1017 ft 1 kts 205°
2026-05-03 22:05 33.64173 -84.42830 1016 ft 11 kts 102°
2026-05-03 22:05 33.64153 -84.42807 1015 ft 0 kts 180°
2026-05-03 22:07 33.64148 -84.42807 1014 ft 1 kts 179°
2026-05-03 22:07 33.64097 -84.42807 1013 ft 14 kts 180°
2026-05-03 22:07 33.63956 -84.42808 1010 ft 26 kts 179°
2026-05-03 22:07 33.63786 -84.42808 1008 ft 27 kts 180°
2026-05-03 22:08 33.63665 -84.42764 1008 ft 13 kts 99°
2026-05-03 22:08 33.63655 -84.42625 1009 ft 21 kts 90°
2026-05-03 22:08 33.63658 -84.42407 1006 ft 29 kts 90°
2026-05-03 22:08 33.63660 -84.42127 1005 ft 38 kts 90°
2026-05-03 22:09 33.63654 -84.41835 995 ft 39 kts 89°
2026-05-03 22:09 33.63656 -84.41529 990 ft 38 kts 90°
2026-05-03 22:09 33.63653 -84.41250 988 ft 33 kts 90°
2026-05-03 22:10 33.63618 -84.41041 992 ft 10 kts 187°
2026-05-03 22:10 33.63524 -84.41042 992 ft 16 kts 182°
2026-05-03 22:10 33.63472 -84.41160 988 ft 22 kts 268°
2026-05-03 22:10 33.63472 -84.41663 993 ft 105 kts 270°
2026-05-03 22:11 33.63469 -84.42839 1027 ft 171 kts 270°
2026-05-03 22:11 33.63457 -84.44333 1771 ft 186 kts 271°
2026-05-03 22:11 33.63448 -84.45932 2768 ft 196 kts 271°
2026-05-03 22:11 33.63437 -84.47628 3415 ft 213 kts 271°
2026-05-03 22:12 33.63437 -84.49508 3874 ft 237 kts 271°
2026-05-03 22:12 33.63442 -84.51571 4535 ft 255 kts 271°
2026-05-03 22:12 33.63445 -84.53726 5447 ft 260 kts 272°
2026-05-03 22:12 33.63447 -84.55889 6378 ft 265 kts 272°
2026-05-03 22:13 33.63450 -84.58111 7289 ft 268 kts 272°
2026-05-03 22:13 33.63451 -84.60377 8213 ft 271 kts 272°
2026-05-03 22:13 33.63389 -84.62652 9133 ft 275 kts 263°
2026-05-03 22:13 33.62774 -84.64813 10016 ft 282 kts 241°
2026-05-03 22:14 33.61442 -84.66585 10673 ft 298 kts 218°
2026-05-03 22:14 33.59433 -84.67532 10932 ft 329 kts 188°
2026-05-03 22:14 33.57116 -84.67143 11449 ft 347 kts 159°
2026-05-03 22:14 33.55002 -84.65671 12150 ft 355 kts 148°
2026-05-03 22:15 33.52979 -84.63941 12924 ft 359 kts 145°
2026-05-03 22:15 33.50980 -84.62105 13659 ft 364 kts 144°
2026-05-03 22:15 33.48975 -84.60230 13934 ft 366 kts 144°
2026-05-03 22:15 33.46958 -84.58363 14006 ft 366 kts 145°
2026-05-03 22:16 33.44954 -84.56544 14007 ft 366 kts 146°
2026-05-03 22:16 33.42903 -84.54720 14010 ft 366 kts 146°
2026-05-03 22:16 33.40848 -84.52917 14010 ft 366 kts 146°
2026-05-03 22:16 33.38782 -84.51118 14124 ft 370 kts 147°
2026-05-03 22:17 33.36689 -84.49300 14835 ft 371 kts 147°
2026-05-03 22:17 33.34590 -84.47472 15521 ft 374 kts 147°
2026-05-03 22:17 33.32502 -84.45650 16164 ft 378 kts 147°
2026-05-03 22:17 33.30367 -84.43786 16800 ft 382 kts 148°
2026-05-03 22:18 33.28203 -84.41902 17460 ft 386 kts 148°
2026-05-03 22:18 33.26018 -84.39998 18109 ft 389 kts 148°
2026-05-03 22:18 33.23836 -84.38097 18712 ft 393 kts 149°
2026-05-03 22:18 33.21616 -84.36162 19302 ft 397 kts 149°
2026-05-03 22:19 33.19359 -84.34197 19909 ft 400 kts 149°
2026-05-03 22:19 33.17093 -84.32229 20524 ft 403 kts 149°
2026-05-03 22:19 33.14840 -84.30273 21106 ft 407 kts 149°
2026-05-03 22:19 33.12533 -84.28272 21685 ft 410 kts 150°
2026-05-03 22:20 33.10211 -84.26256 22256 ft 413 kts 150°
2026-05-03 22:20 33.07879 -84.24233 22824 ft 416 kts 150°
2026-05-03 22:20 33.05526 -84.22189 23383 ft 420 kts 150°
2026-05-03 22:20 33.03176 -84.20149 23893 ft 423 kts 150°
2026-05-03 22:21 33.00754 -84.18144 24347 ft 422 kts 156°
2026-05-03 22:21 32.98163 -84.16579 24793 ft 416 kts 165°
2026-05-03 22:21 32.95436 -84.15417 25253 ft 415 kts 169°
2026-05-03 22:21 32.92689 -84.14291 25715 ft 417 kts 169°
2026-05-03 22:22 32.89930 -84.13159 26161 ft 420 kts 169°
2026-05-03 22:22 32.87160 -84.12023 26600 ft 422 kts 169°
2026-05-03 22:22 32.84369 -84.10880 27030 ft 424 kts 169°
2026-05-03 22:22 32.81568 -84.09730 27453 ft 426 kts 169°
2026-05-03 22:23 32.78787 -84.08587 27876 ft 428 kts 170°
2026-05-03 22:23 32.75947 -84.07418 28293 ft 430 kts 170°
2026-05-03 22:23 32.73110 -84.06249 28703 ft 433 kts 170°
2026-05-03 22:23 32.70259 -84.05078 29097 ft 435 kts 170°
2026-05-03 22:24 32.67386 -84.03901 29499 ft 437 kts 170°
2026-05-03 22:24 32.64495 -84.02720 29899 ft 439 kts 171°
2026-05-03 22:24 32.61639 -84.01555 30282 ft 441 kts 171°
2026-05-03 22:24 32.58720 -84.00361 30624 ft 443 kts 171°
2026-05-03 22:25 32.55795 -83.99165 30973 ft 445 kts 171°
2026-05-03 22:25 32.52865 -83.97968 31313 ft 446 kts 171°
2026-05-03 22:25 32.49906 -83.96758 31649 ft 448 kts 171°
2026-05-03 22:25 32.46955 -83.95550 32028 ft 448 kts 171°
2026-05-03 22:26 32.44019 -83.94347 32500 ft 446 kts 171°
2026-05-03 22:26 32.41128 -83.93162 32965 ft 444 kts 172°
2026-05-03 22:26 32.38210 -83.91970 33441 ft 442 kts 172°
2026-05-03 22:26 32.35309 -83.90802 33916 ft 439 kts 173°
2026-05-03 22:27 32.32405 -83.89707 34353 ft 436 kts 174°
2026-05-03 22:27 32.29510 -83.88673 34742 ft 433 kts 175°
2026-05-03 22:27 32.26615 -83.87669 35106 ft 432 kts 175°
2026-05-03 22:27 32.23718 -83.86668 35460 ft 432 kts 175°
2026-05-03 22:28 32.20863 -83.85676 35790 ft 432 kts 175°
2026-05-03 22:28 32.17976 -83.84660 36130 ft 432 kts 175°
2026-05-03 22:28 32.15104 -83.83634 36467 ft 431 kts 175°
2026-05-03 22:28 32.12227 -83.82601 36796 ft 431 kts 175°
2026-05-03 22:29 32.09376 -83.81578 37070 ft 431 kts 176°
2026-05-03 22:29 32.03623 -83.79518 37122 ft 429 kts 176°
2026-05-03 22:30 31.97937 -83.77485 37128 ft 428 kts 176°
2026-05-03 22:30 31.92231 -83.75457 37129 ft 428 kts 176°
2026-05-03 22:31 31.86556 -83.73439 37131 ft 428 kts 176°
2026-05-03 22:31 31.80844 -83.71407 37128 ft 428 kts 176°
2026-05-03 22:32 31.75184 -83.69393 37128 ft 417 kts 176°
2026-05-03 22:32 31.72452 -83.68404 37128 ft 403 kts 177°
2026-05-03 22:32 31.69807 -83.67445 37129 ft 390 kts 176°
2026-05-03 22:33 31.64783 -83.65091 37130 ft 385 kts 172°
2026-05-03 22:33 31.59866 -83.62698 37133 ft 384 kts 172°
2026-05-03 22:34 31.54893 -83.60277 37136 ft 392 kts 172°
2026-05-03 22:34 31.49831 -83.57807 37133 ft 390 kts 172°
2026-05-03 22:35 31.44783 -83.55327 37137 ft 402 kts 172°
2026-05-03 22:35 31.39527 -83.52779 37136 ft 418 kts 172°
2026-05-03 22:36 31.34047 -83.50119 37136 ft 433 kts 171°
2026-05-03 22:36 31.28378 -83.47357 37132 ft 447 kts 171°
2026-05-03 22:37 31.22596 -83.44522 37131 ft 455 kts 170°
2026-05-03 22:37 31.16759 -83.41660 37125 ft 456 kts 171°
2026-05-03 22:38 31.10903 -83.38812 37111 ft 456 kts 171°
2026-05-03 22:38 31.05044 -83.35979 37115 ft 456 kts 171°
2026-05-03 22:39 30.99207 -83.33151 37105 ft 456 kts 171°
2026-05-03 22:39 30.93333 -83.30309 37108 ft 456 kts 171°
2026-05-03 22:40 30.87426 -83.27463 37128 ft 461 kts 171°
2026-05-03 22:40 30.81528 -83.24615 37126 ft 462 kts 171°
2026-05-03 22:41 30.75577 -83.21742 37124 ft 462 kts 171°
2026-05-03 22:41 30.69634 -83.18878 37124 ft 461 kts 171°
2026-05-03 22:42 30.63727 -83.16040 37128 ft 462 kts 171°
2026-05-03 22:42 30.57761 -83.13181 37139 ft 462 kts 171°
2026-05-03 22:43 30.51842 -83.10349 37138 ft 462 kts 171°
2026-05-03 22:43 30.45873 -83.07497 37136 ft 462 kts 171°
2026-05-03 22:44 30.39908 -83.04644 37132 ft 463 kts 171°
2026-05-03 22:44 30.33951 -83.01793 37133 ft 463 kts 171°
2026-05-03 22:45 30.28020 -82.98971 37129 ft 463 kts 171°
2026-05-03 22:45 30.22058 -82.96141 37125 ft 463 kts 171°
2026-05-03 22:46 30.16126 -82.93320 37119 ft 463 kts 171°
2026-05-03 22:46 30.10160 -82.90488 37118 ft 463 kts 171°
2026-05-03 22:47 30.04189 -82.87655 37111 ft 463 kts 171°
2026-05-03 22:47 29.99219 -82.85300 37119 ft 463 kts 171°
2026-05-03 22:48 29.92268 -82.82009 37112 ft 464 kts 171°
2026-05-03 22:48 29.87298 -82.79666 37111 ft 464 kts 171°
2026-05-03 22:49 29.81302 -82.76836 37108 ft 464 kts 171°
2026-05-03 22:49 29.75320 -82.74014 37106 ft 464 kts 171°
2026-05-03 22:50 29.69375 -82.71220 37104 ft 464 kts 171°
2026-05-03 22:50 29.63393 -82.68412 37107 ft 463 kts 170°
2026-05-03 22:51 29.57444 -82.65624 37104 ft 463 kts 170°
2026-05-03 22:51 29.51452 -82.62815 37098 ft 463 kts 170°
2026-05-03 22:52 29.45508 -82.60034 37100 ft 463 kts 170°
2026-05-03 22:52 29.39529 -82.57241 37094 ft 463 kts 170°
2026-05-03 22:53 29.33574 -82.54457 37095 ft 463 kts 170°
2026-05-03 22:53 29.27600 -82.51667 37094 ft 463 kts 170°
2026-05-03 22:54 29.21613 -82.48879 37090 ft 464 kts 170°
2026-05-03 22:54 29.15660 -82.46108 37091 ft 464 kts 170°
2026-05-03 22:55 29.09665 -82.43327 37093 ft 465 kts 170°
2026-05-03 22:55 29.03664 -82.40542 37088 ft 466 kts 169°
2026-05-03 22:56 28.97667 -82.37762 37086 ft 467 kts 169°
2026-05-03 22:56 28.91633 -82.34973 37082 ft 467 kts 169°
2026-05-03 22:57 28.85598 -82.32185 37081 ft 468 kts 169°
2026-05-03 22:57 28.79543 -82.29388 37085 ft 468 kts 169°
2026-05-03 22:58 28.73498 -82.26607 37076 ft 469 kts 169°
2026-05-03 22:58 28.67478 -82.23833 37081 ft 469 kts 169°
2026-05-03 22:59 28.61410 -82.21045 37081 ft 471 kts 169°
2026-05-03 22:59 28.55332 -82.18247 37077 ft 471 kts 169°
2026-05-03 23:00 28.49224 -82.15448 37082 ft 472 kts 168°
2026-05-03 23:00 28.43151 -82.12666 37080 ft 473 kts 168°
2026-05-03 23:01 28.37064 -82.09881 37077 ft 474 kts 168°